Wind_Speed
29 28 28 26 24 24 23 22 19 17 17 18 18 19 20 21 20 18 19 18 18 17 16 15 14 13 11 11 7 7 4 2 4
28 30 29 25 27 27 25 23 21 20 19 20 20 21 23 23 23 21 20 20 21 19 18 18 18 16 14 14 11 9 7 4 2
25 29 29 28 28 25 22 20 21 23 23 19 20 20 19 21 24 26 25 24 22 21 21 21 21 21 17 16 16 12 11 7 4
26 28 25 21 21 20 21 21 22 22 19 14 12 9 12 15 17 20 24 24 24 24 24 24 23 24 23 19 19 17 13 11 6
34 31 29 30 29 28 25 24 25 22 20 17 13 12 11 12 15 15 16 20 25 26 25 27 26 28 27 24 21 21 17 14 10
39 35 29 27 30 30 28 26 26 23 23 20 20 18 15 14 12 14 14 15 17 17 17 21 23 29 31 29 25 23 20 18 14
44 43 41 37 36 35 34 33 28 25 23 22 22 20 18 15 12 15 17 15 11 12 13 14 19 22 29 30 27 26 23 21 17
45 46 46 40 39 40 40 37 33 30 26 26 26 24 23 17 16 18 19 12 11 11 10 11 14 17 22 27 26 27 24 22 20
42 47 48 46 41 41 44 42 39 36 32 29 30 26 22 21 19 20 20 18 14 13 10 9 11 13 12 15 21 26 23 25 25
37 48 46 44 44 43 43 44 44 40 35 36 32 29 26 23 17 22 24 23 20 19 14 14 11 12 14 13 14 20 23 25 30
36 40 46 44 42 44 45 46 46 41 40 39 37 32 27 25 21 19 25 29 25 24 22 20 19 17 17 17 17 20 23 28 31
36 39 41 40 43 41 37 36 38 42 44 39 44 37 31 24 25 26 26 25 24 28 27 25 26 28 26 24 23 21 24 29 33
40 42 43 41 39 38 36 33 30 32 38 36 35 33 33 31 31 33 35 33 34 37 35 33 31 33 33 32 30 31 29 31 35
37 39 42 44 42 38 36 34 33 30 31 29 31 35 36 38 35 33 34 36 39 44 45 43 38 38 40 40 41 36 36 39 44
41 39 40 44 44 42 39 37 36 35 33 32 32 34 38 39 38 38 37 36 36 38 41 43 42 50 49 47 44 41 35 41 46
43 42 39 39 42 41 41 38 37 35 35 35 34 35 36 38 38 39 40 38 39 38 41 46 48 50 49 47 48 40 42 41 43
46 44 39 41 38 38 39 38 35 34 34 35 35 36 38 40 41 41 40 39 39 38 41 46 48 50 48 58 43 45 49 45 45
48 44 43 38 35 35 35 34 33 37 39 39 39 40 40 41 41 42 43 45 45 48 45 45 47 49 53 59 59 55 53 52 50
46 44 44 43 41 37 33 33 32 32 32 34 38 40 40 41 42 45 46 46 47 48 50 53 54 56 60 61 62 59 55 57 66
48 49 51 48 44 40 37 33 32 36 33 34 37 39 40 41 44 47 50 52 52 54 54 54 56 59 61 62 62 60 61 66 71
Wind_Direction
218 208 201 194 188 190 189 193 195 195 200 207 208 212 219 228 234 233 233 237 246 249 249 255 262 263 273 276 273 262 268 274 352
221 214 206 192 186 187 192 192 186 192 204 213 219 224 227 229 231 234 234 234 243 252 257 260 261 263 267 276 266 254 251 243 315
225 217 205 198 198 199 201 197 200 205 209 215 224 234 238 238 240 240 241 240 243 247 253 259 263 265 264 271 265 248 252 241 252
221 220 213 208 212 211 211 217 214 219 213 222 223 232 237 242 242 240 240 242 243 246 252 257 260 263 260 261 263 245 246 239 239
213 209 207 210 215 214 221 217 213 211 210 213 226 239 244 253 254 250 247 241 241 246 250 257 259 261 262 259 255 247 240 235 232
214 215 216 214 219 222 222 218 222 228 224 222 220 236 239 250 266 262 256 251 248 249 253 259 262 260 263 263 253 243 240 230 232
214 209 209 216 219 218 211 213 218 225 229 234 233 241 249 251 268 254 259 261 258 255 265 279 281 269 258 258 247 239 241 235 236
216 212 213 218 221 218 215 218 219 224 228 241 245 251 263 270 262 270 268 266 260 260 272 281 298 294 264 257 244 239 247 242 241
220 221 226 226 221 219 221 223 224 228 233 242 250 255 259 262 265 269 265 258 252 258 275 304 317 305 293 265 253 243 249 245 248
216 218 225 229 225 225 224 226 230 233 235 240 247 251 256 258 269 275 268 249 246 250 261 276 291 306 303 284 266 257 261 257 254
219 221 227 230 229 228 231 231 238 240 240 240 246 249 251 259 265 271 275 255 246 248 256 264 269 273 282 281 277 260 255 258 259
228 228 229 232 236 238 238 240 244 245 246 245 242 245 247 258 263 260 261 266 254 245 252 255 260 262 264 266 271 272 263 262 265
219 226 232 233 233 235 237 238 241 244 245 246 242 240 244 247 254 259 263 261 262 257 252 252 253 256 260 259 256 259 257 258 262
224 226 233 239 240 240 242 245 241 238 243 243 238 238 243 247 252 252 250 252 258 263 260 255 256 260 257 258 262 275 268 257 263
231 233 234 236 239 242 243 244 247 244 240 243 242 239 242 246 248 248 254 261 263 267 266 266 266 267 265 269 266 283 282 271 262
235 236 238 239 240 243 246 245 245 248 245 241 245 246 247 252 256 257 261 264 266 263 260 261 265 273 277 286 282 277 273 283 273
235 240 242 241 241 243 248 246 246 250 248 242 242 247 250 253 257 260 264 266 264 269 264 263 268 274 278 281 260 267 275 283 281
236 242 242 242 241 242 248 248 245 244 245 248 249 249 248 251 253 258 262 265 265 265 273 267 264 272 275 275 284 283 280 282 279
239 238 244 248 248 247 247 248 248 247 248 250 245 247 250 250 252 255 260 262 266 268 268 269 271 271 275 277 278 279 281 275 270
243 244 242 242 246 246 245 247 249 247 252 253 250 252 250 250 252 256 260 261 262 264 267 271 274 274 276 277 275 274 272 268 269
Height
5874 5877 5881 5884 5888 5891 5893 5896 5900 5903 5906 5908 5909 5911 5912 5913 5915 5918 5920 5922 5923 5924 5924 5925 5927 5927 5928 5928 5927 5927 5928 5928 5929
5871 5875 5879 5883 5885 5888 5891 5894 5897 5900 5903 5905 5907 5909 5909 5910 5911 5913 5915 5916 5918 5920 5921 5922 5924 5925 5926 5926 5925 5924 5925 5925 5927
5870 5873 5876 5880 5883 5887 5890 5893 5895 5897 5899 5901 5903 5904 5906 5907 5908 5909 5910 5912 5914 5916 5917 5919 5921 5922 5923 5923 5922 5923 5923 5923 5924
5868 5872 5875 5879 5882 5885 5888 5890 5892 5895 5898 5900 5902 5902 5903 5905 5905 5905 5906 5909 5910 5912 5912 5914 5916 5917 5918 5919 5919 5919 5920 5921 5922
5861 5867 5870 5873 5877 5879 5883 5886 5889 5892 5894 5896 5899 5899 5900 5901 5902 5903 5903 5904 5905 5906 5908 5909 5911 5911 5913 5915 5915 5916 5917 5918 5919
5851 5857 5864 5869 5873 5877 5880 5883 5886 5888 5891 5894 5894 5896 5898 5899 5900 5900 5901 5902 5902 5903 5904 5904 5905 5906 5907 5910 5911 5912 5913 5914 5916
5845 5850 5855 5860 5865 5870 5874 5878 5881 5884 5887 5889 5891 5893 5894 5897 5898 5898 5898 5898 5899 5900 5900 5901 5900 5900 5900 5902 5905 5907 5908 5911 5912
5840 5844 5849 5854 5859 5864 5868 5872 5876 5879 5881 5884 5886 5889 5891 5893 5894 5894 5894 5894 5895 5895 5896 5896 5895 5894 5894 5895 5898 5902 5905 5907 5908
5835 5840 5843 5847 5852 5857 5862 5866 5870 5873 5876 5879 5880 5884 5887 5889 5889 5890 5890 5891 5892 5892 5893 5893 5893 5892 5891 5892 5895 5898 5900 5901 5903
5829 5834 5837 5841 5847 5850 5854 5859 5861 5865 5870 5871 5875 5878 5880 5883 5885 5886 5887 5886 5887 5889 5889 5890 5891 5891 5891 5891 5892 5893 5895 5896 5896
5823 5827 5830 5834 5839 5844 5846 5850 5853 5861 5863 5867 5870 5872 5874 5876 5879 5880 5880 5880 5882 5884 5885 5885 5886 5887 5887 5887 5888 5888 5888 5888 5887
5817 5820 5824 5828 5832 5835 5839 5843 5848 5851 5856 5860 5863 5867 5869 5871 5872 5872 5872 5876 5876 5876 5877 5879 5879 5879 5879 5881 5883 5883 5883 5881 5880
5805 5809 5812 5818 5824 5828 5833 5838 5841 5844 5847 5850 5855 5860 5862 5863 5865 5865 5866 5868 5868 5869 5869 5870 5870 5872 5872 5873 5873 5874 5874 5873 5870
5797 5802 5807 5810 5815 5820 5825 5830 5834 5837 5838 5843 5846 5848 5851 5855 5857 5858 5859 5860 5861 5861 5861 5861 5863 5863 5863 5863 5864 5866 5866 5863 5860
5787 5792 5796 5801 5807 5812 5816 5821 5825 5829 5831 5834 5836 5839 5843 5846 5848 5850 5851 5852 5854 5854 5853 5854 5856 5856 5855 5855 5856 5856 5856 5853 5850
5777 5782 5787 5792 5796 5801 5807 5811 5815 5819 5823 5826 5828 5831 5833 5835 5838 5840 5841 5843 5843 5843 5844 5845 5846 5843 5843 5846 5846 5846 5844 5844 5841
5766 5771 5776 5781 5787 5791 5796 5802 5805 5808 5812 5816 5819 5821 5823 5825 5826 5828 5829 5830 5831 5832 5833 5834 5833 5831 5830 5829 5821 5831 5833 5832 5829
5755 5760 5766 5771 5775 5780 5784 5790 5794 5798 5802 5805 5808 5810 5812 5814 5816 5818 5819 5820 5821 5821 5821 5821 5822 5822 5820 5816 5815 5817 5815 5815 5815
5744 5751 5755 5759 5765 5770 5774 5779 5783 5788 5792 5795 5797 5799 5801 5803 5804 5806 5807 5808 5808 5809 5809 5808 5808 5807 5805 5805 5800 5800 5797 5797 5795
5730 5736 5744 5750 5754 5758 5763 5767 5772 5776 5779 5782 5785 5787 5788 5790 5791 5792 5793 5794 5794 5793 5794 5794 5792 5791 5789 5787 5784 5782 5780 5780 5779